Location: Alpha Ridge Park
(39.3209°N, 76.9128°W)
Time: 08:57:27
(UTC-04:00)

Vanguard 2 Rocket - Pass Details

Date: 28 May 2019
Orbit: 554 x 3326 km, 32.9° (Epoch: 19 June)

Event Time Altitude Azimuth Distance (km) Brightness Sun altitude
Rises 09:16:41 0° 272° (W) 7,002 10.9 38.6°
Reaches altitude 10° 09:21:55 10° 270° (W) 5,696 10.6 39.6°
Maximum altitude 09:37:23 58° 197° (SSW) 2,223 9.4 42.6°
Drops below altitude 10° 09:46:13 10° 121° (ESE) 3,396 10.7 44.3°
Sets 09:48:34 0° 117° (ESE) 4,089 10.9 44.7°
